iso_date,epoch_date,Year,Hour,Min,DOY,POS_DOY,Lat,Lon,BP,Ts,Ta,has_bp,has_ts,has_ta,BuoyID,Buoy_Type,Buoy_Owner,Logistics,Hemisphere
2017-01-05T13:35:02Z,1483623302,2017,13,35,5.566,5.566,-70.5678,-7.9002,983.4,-0.1,-999.0,yes,yes,no,300234062783540,SVP,AWI-USIABP,unknown,South
2017-01-05T13:59:31Z,1483624771,2017,14,0,5.583,5.583,-70.5678,-7.9002,983.1,2.0,-999.0,yes,yes,no,300234062783540,SVP,AWI-USIABP,unknown,South
2017-01-05T15:00:00Z,1483628400,2017,15,0,5.625,5.625,-70.5678,-7.9002,983.0,6.0,-999.0,yes,yes,no,300234062783540,SVP,AWI-USIABP,unknown,South
2017-01-05T16:00:28Z,1483632029,2017,16,0,5.667,5.667,-70.5678,-7.9002,983.3,5.0,-999.0,yes,yes,no,300234062783540,SVP,AWI-USIABP,unknown,South
2017-01-05T16:59:31Z,1483635571,2017,17,0,5.708,5.708,-70.5678,-7.9002,983.3,1.9,-999.0,yes,yes,no,300234062783540,SVP,AWI-USIABP,unknown,South
2017-01-05T18:00:00Z,1483639200,2017,18,0,5.75,5.75,-70.5678,-7.9002,983.3,0.7,-999.0,yes,yes,no,300234062783540,SVP,AWI-USIABP,unknown,South
2017-01-05T19:00:28Z,1483642829,2017,19,0,5.792,5.792,-70.5678,-7.9,983.3,0.6,-999.0,yes,yes,no,300234062783540,SVP,AWI-USIABP,unknown,South
2017-01-05T19:59:31Z,1483646371,2017,20,0,5.833,5.833,-70.5678,-7.9,983.4,0.8,-999.0,yes,yes,no,300234062783540,SVP,AWI-USIABP,unknown,South
2017-01-05T21:00:00Z,1483650000,2017,21,0,5.875,5.875,-70.5678,-7.9,983.6,3.6,-999.0,yes,yes,no,300234062783540,SVP,AWI-USIABP,unknown,South
2017-01-05T22:00:28Z,1483653629,2017,22,0,5.917,5.917,-70.5678,-7.9002,983.7,2.5,-999.0,yes,yes,no,300234062783540,SVP,AWI-USIABP,unknown,South
2017-01-05T22:59:31Z,1483657171,2017,23,0,5.958,5.958,-70.5678,-7.9002,983.9,1.4,-999.0,yes,yes,no,300234062783540,SVP,AWI-USIABP,unknown,South
2017-01-06T00:00:00Z,1483660800,2017,0,0,6.0,6.0,-70.5678,-7.9,984.1,1.7,-999.0,yes,yes,no,300234062783540,SVP,AWI-USIABP,unknown,South
2017-01-06T01:00:28Z,1483664429,2017,1,0,6.042,6.042,-70.5678,-7.9002,984.2,1.1,-999.0,yes,yes,no,300234062783540,SVP,AWI-USIABP,unknown,South
2017-01-06T01:59:31Z,1483667971,2017,2,0,6.083,6.083,-70.5678,-7.9,984.3,0.8,-999.0,yes,yes,no,300234062783540,SVP,AWI-USIABP,unknown,South
2017-01-06T03:00:00Z,1483671600,2017,3,0,6.125,6.125,-70.5678,-7.9002,984.6,0.8,-999.0,yes,yes,no,300234062783540,SVP,AWI-USIABP,unknown,South
2017-01-06T04:00:28Z,1483675229,2017,4,0,6.167,6.167,-70.5678,-7.9002,984.7,0.9,-999.0,yes,yes,no,300234062783540,SVP,AWI-USIABP,unknown,South
2017-01-06T04:59:31Z,1483678771,2017,5,0,6.208,6.208,-70.5678,-7.9002,984.7,1.0,-999.0,yes,yes,no,300234062783540,SVP,AWI-USIABP,unknown,South
2017-01-06T06:00:00Z,1483682400,2017,6,0,6.25,6.25,-70.5678,-7.9002,984.9,1.2,-999.0,yes,yes,no,300234062783540,SVP,AWI-USIABP,unknown,South
2017-01-06T07:00:28Z,1483686029,2017,7,0,6.292,6.292,-70.5678,-7.9002,985.3,1.6,-999.0,yes,yes,no,300234062783540,SVP,AWI-USIABP,unknown,South
2017-01-06T07:59:31Z,1483689571,2017,8,0,6.333,6.333,-70.5678,-7.9002,985.6,1.2,-999.0,yes,yes,no,300234062783540,SVP,AWI-USIABP,unknown,South
2017-01-06T09:00:00Z,1483693200,2017,9,0,6.375,6.375,-70.5678,-7.9002,985.9,1.4,-999.0,yes,yes,no,300234062783540,SVP,AWI-USIABP,unknown,South
2017-01-06T10:00:28Z,1483696829,2017,10,0,6.417,6.417,-70.5678,-7.9002,986.2,0.8,-999.0,yes,yes,no,300234062783540,SVP,AWI-USIABP,unknown,South
2017-01-06T10:59:31Z,1483700371,2017,11,0,6.458,6.458,-70.5678,-7.9002,986.6,1.4,-999.0,yes,yes,no,300234062783540,SVP,AWI-USIABP,unknown,South
2017-01-06T12:00:00Z,1483704000,2017,12,0,6.5,6.5,-70.5678,-7.9002,986.9,1.9,-999.0,yes,yes,no,300234062783540,SVP,AWI-USIABP,unknown,South
2017-01-06T13:00:28Z,1483707629,2017,13,0,6.542,6.542,-70.5678,-7.9002,987.2,1.4,-999.0,yes,yes,no,300234062783540,SVP,AWI-USIABP,unknown,South
2017-01-06T13:59:31Z,1483711171,2017,14,0,6.583,6.583,-70.5678,-7.9002,987.6,2.4,-999.0,yes,yes,no,300234062783540,SVP,AWI-USIABP,unknown,South
2017-01-06T15:00:00Z,1483714800,2017,15,0,6.625,6.625,-70.5678,-7.9002,987.9,1.7,-999.0,yes,yes,no,300234062783540,SVP,AWI-USIABP,unknown,South
2017-01-06T16:00:28Z,1483718429,2017,16,0,6.667,6.667,-70.5678,-7.9002,988.4,1.2,-999.0,yes,yes,no,300234062783540,SVP,AWI-USIABP,unknown,South
2017-01-06T16:59:31Z,1483721971,2017,17,0,6.708,6.708,-70.5678,-7.9002,988.7,1.2,-999.0,yes,yes,no,300234062783540,SVP,AWI-USIABP,unknown,South
2017-01-06T18:00:00Z,1483725600,2017,18,0,6.75,6.75,-70.5678,-7.9002,989.1,1.4,-999.0,yes,yes,no,300234062783540,SVP,AWI-USIABP,unknown,South
2017-01-06T19:00:28Z,1483729229,2017,19,0,6.792,6.792,-70.5678,-7.9,989.5,1.6,-999.0,yes,yes,no,300234062783540,SVP,AWI-USIABP,unknown,South
2017-01-06T19:59:31Z,1483732771,2017,20,0,6.833,6.833,-70.5678,-7.9,989.8,0.9,-999.0,yes,yes,no,300234062783540,SVP,AWI-USIABP,unknown,South
2017-01-06T21:00:00Z,1483736400,2017,21,0,6.875,6.875,-70.5678,-7.9,990.2,0.4,-999.0,yes,yes,no,300234062783540,SVP,AWI-USIABP,unknown,South
2017-01-06T22:00:28Z,1483740029,2017,22,0,6.917,6.917,-70.5678,-7.9,990.6,0.6,-999.0,yes,yes,no,300234062783540,SVP,AWI-USIABP,unknown,South
2017-01-06T22:59:31Z,1483743571,2017,23,0,6.958,6.958,-70.5678,-7.9002,990.9,0.4,-999.0,yes,yes,no,300234062783540,SVP,AWI-USIABP,unknown,South
2017-01-07T00:00:00Z,1483747200,2017,0,0,7.0,7.0,-70.5678,-7.9002,991.2,0.1,-999.0,yes,yes,no,300234062783540,SVP,AWI-USIABP,unknown,South
2017-01-07T01:00:28Z,1483750829,2017,1,0,7.042,7.042,-70.5678,-7.9,991.4,-0.1,-999.0,yes,yes,no,300234062783540,SVP,AWI-USIABP,unknown,South
2017-01-07T01:59:31Z,1483754371,2017,2,0,7.083,7.083,-70.5678,-7.9002,991.5,-0.2,-999.0,yes,yes,no,300234062783540,SVP,AWI-USIABP,unknown,South
2017-01-07T03:00:00Z,1483758000,2017,3,0,7.125,7.125,-70.5678,-7.9,991.6,-0.2,-999.0,yes,yes,no,300234062783540,SVP,AWI-USIABP,unknown,South
2017-01-07T04:00:28Z,1483761629,2017,4,0,7.167,7.167,-70.5678,-7.9002,991.6,-0.3,-999.0,yes,yes,no,300234062783540,SVP,AWI-USIABP,unknown,South
2017-01-07T04:59:31Z,1483765171,2017,5,0,7.208,7.208,-70.5678,-7.9002,991.9,-0.3,-999.0,yes,yes,no,300234062783540,SVP,AWI-USIABP,unknown,South
2017-01-07T06:00:00Z,1483768800,2017,6,0,7.25,7.25,-70.5678,-7.9002,992.1,-0.4,-999.0,yes,yes,no,300234062783540,SVP,AWI-USIABP,unknown,South
2017-01-07T07:00:28Z,1483772429,2017,7,0,7.292,7.292,-70.5678,-7.9002,992.3,-0.1,-999.0,yes,yes,no,300234062783540,SVP,AWI-USIABP,unknown,South
2017-01-07T07:59:31Z,1483775971,2017,8,0,7.333,7.333,-70.5678,-7.9002,992.7,0.1,-999.0,yes,yes,no,300234062783540,SVP,AWI-USIABP,unknown,South
2017-01-07T09:00:00Z,1483779600,2017,9,0,7.375,7.375,-70.5678,-7.9002,993.1,0.3,-999.0,yes,yes,no,300234062783540,SVP,AWI-USIABP,unknown,South
2017-01-07T10:00:28Z,1483783229,2017,10,0,7.417,7.417,-70.5678,-7.9,993.1,0.7,-999.0,yes,yes,no,300234062783540,SVP,AWI-USIABP,unknown,South
2017-01-07T10:59:31Z,1483786771,2017,11,0,7.458,7.458,-70.5678,-7.9002,993.2,0.9,-999.0,yes,yes,no,300234062783540,SVP,AWI-USIABP,unknown,South
2017-01-07T12:00:00Z,1483790400,2017,12,0,7.5,7.5,-70.5678,-7.9002,993.4,1.0,-999.0,yes,yes,no,300234062783540,SVP,AWI-USIABP,unknown,South
2017-01-07T13:00:28Z,1483794029,2017,13,0,7.542,7.542,-70.5678,-7.9002,993.5,1.4,-999.0,yes,yes,no,300234062783540,SVP,AWI-USIABP,unknown,South
2017-01-07T13:59:31Z,1483797571,2017,14,0,7.583,7.583,-70.5678,-7.9002,993.3,1.8,-999.0,yes,yes,no,300234062783540,SVP,AWI-USIABP,unknown,South
2017-01-07T15:00:00Z,1483801200,2017,15,0,7.625,7.625,-70.5678,-7.9002,993.2,2.2,-999.0,yes,yes,no,300234062783540,SVP,AWI-USIABP,unknown,South
2017-01-07T16:00:28Z,1483804829,2017,16,0,7.667,7.667,-70.5678,-7.9,993.2,2.1,-999.0,yes,yes,no,300234062783540,SVP,AWI-USIABP,unknown,South
2017-01-07T16:59:31Z,1483808371,2017,17,0,7.708,7.708,-70.5678,-7.9002,993.4,2.0,-999.0,yes,yes,no,300234062783540,SVP,AWI-USIABP,unknown,South
2017-01-07T18:00:00Z,1483812000,2017,18,0,7.75,7.75,-70.5678,-7.9,993.6,1.9,-999.0,yes,yes,no,300234062783540,SVP,AWI-USIABP,unknown,South
2017-01-07T19:00:28Z,1483815629,2017,19,0,7.792,7.792,-70.5678,-7.9,993.9,1.6,-999.0,yes,yes,no,300234062783540,SVP,AWI-USIABP,unknown,South
2017-01-07T19:59:31Z,1483819171,2017,20,0,7.833,7.833,-70.5678,-7.9,994.1,1.2,-999.0,yes,yes,no,300234062783540,SVP,AWI-USIABP,unknown,South
2017-01-07T21:00:00Z,1483822800,2017,21,0,7.875,7.875,-70.5678,-7.9,994.3,1.1,-999.0,yes,yes,no,300234062783540,SVP,AWI-USIABP,unknown,South
2017-01-07T22:00:28Z,1483826429,2017,22,0,7.917,7.917,-70.5678,-7.9,994.4,0.9,-999.0,yes,yes,no,300234062783540,SVP,AWI-USIABP,unknown,South
2017-01-07T22:59:31Z,1483829971,2017,23,0,7.958,7.958,-70.5678,-7.9002,994.4,0.5,-999.0,yes,yes,no,300234062783540,SVP,AWI-USIABP,unknown,South
2017-01-08T00:00:00Z,1483833600,2017,0,0,8.0,8.0,-70.5678,-7.9,994.4,0.2,-999.0,yes,yes,no,300234062783540,SVP,AWI-USIABP,unknown,South
2017-01-08T01:00:28Z,1483837229,2017,1,0,8.042,8.042,-70.5678,-7.9,994.5,-0.1,-999.0,yes,yes,no,300234062783540,SVP,AWI-USIABP,unknown,South
2017-01-08T01:59:31Z,1483840771,2017,2,0,8.083,8.083,-70.5678,-7.9002,994.6,-0.2,-999.0,yes,yes,no,300234062783540,SVP,AWI-USIABP,unknown,South
2017-01-08T03:00:00Z,1483844400,2017,3,0,8.125,8.125,-70.5678,-7.9002,994.6,-0.5,-999.0,yes,yes,no,300234062783540,SVP,AWI-USIABP,unknown,South
2017-01-08T04:00:28Z,1483848029,2017,4,0,8.167,8.167,-70.5678,-7.9002,994.7,-0.8,-999.0,yes,yes,no,300234062783540,SVP,AWI-USIABP,unknown,South
2017-01-08T04:59:31Z,1483851571,2017,5,0,8.208,8.208,-70.5678,-7.9002,994.9,-1.0,-999.0,yes,yes,no,300234062783540,SVP,AWI-USIABP,unknown,South
2017-01-08T06:00:00Z,1483855200,2017,6,0,8.25,8.25,-70.5678,-7.9002,995.2,-1.1,-999.0,yes,yes,no,300234062783540,SVP,AWI-USIABP,unknown,South
2017-01-08T07:00:28Z,1483858829,2017,7,0,8.292,8.292,-70.5678,-7.9,995.5,-1.5,-999.0,yes,yes,no,300234062783540,SVP,AWI-USIABP,unknown,South
2017-01-08T07:59:31Z,1483862371,2017,8,0,8.333,8.333,-70.5678,-7.9002,995.5,-1.5,-999.0,yes,yes,no,300234062783540,SVP,AWI-USIABP,unknown,South
2017-01-08T09:00:00Z,1483866000,2017,9,0,8.375,8.375,-70.5678,-7.9002,995.8,-1.4,-999.0,yes,yes,no,300234062783540,SVP,AWI-USIABP,unknown,South
2017-01-08T10:00:28Z,1483869629,2017,10,0,8.417,8.417,-70.5678,-7.9002,995.9,-1.3,-999.0,yes,yes,no,300234062783540,SVP,AWI-USIABP,unknown,South
2017-01-08T10:59:31Z,1483873171,2017,11,0,8.458,8.458,-70.5678,-7.9002,995.9,-1.0,-999.0,yes,yes,no,300234062783540,SVP,AWI-USIABP,unknown,South
2017-01-08T12:00:00Z,1483876800,2017,12,0,8.5,8.5,-70.5678,-7.9002,996.0,-0.8,-999.0,yes,yes,no,300234062783540,SVP,AWI-USIABP,unknown,South
2017-01-08T13:00:28Z,1483880429,2017,13,0,8.542,8.542,-70.5678,-7.9002,995.9,-0.6,-999.0,yes,yes,no,300234062783540,SVP,AWI-USIABP,unknown,South
2017-01-08T13:59:31Z,1483883971,2017,14,0,8.583,8.583,-70.5678,-7.9002,995.9,-0.7,-999.0,yes,yes,no,300234062783540,SVP,AWI-USIABP,unknown,South
2017-01-08T15:00:00Z,1483887600,2017,15,0,8.625,8.625,-70.5678,-7.9002,995.9,-0.4,-999.0,yes,yes,no,300234062783540,SVP,AWI-USIABP,unknown,South
2017-01-08T16:00:28Z,1483891229,2017,16,0,8.667,8.667,-70.5678,-7.9002,995.8,-0.3,-999.0,yes,yes,no,300234062783540,SVP,AWI-USIABP,unknown,South
2017-01-08T16:59:31Z,1483894771,2017,17,0,8.708,8.708,-70.5678,-7.9002,995.8,-0.4,-999.0,yes,yes,no,300234062783540,SVP,AWI-USIABP,unknown,South
2017-01-08T18:00:00Z,1483898400,2017,18,0,8.75,8.75,-70.5678,-7.9002,995.6,-0.5,-999.0,yes,yes,no,300234062783540,SVP,AWI-USIABP,unknown,South
2017-01-08T19:00:28Z,1483902029,2017,19,0,8.792,8.792,-70.5678,-7.9,995.7,-0.6,-999.0,yes,yes,no,300234062783540,SVP,AWI-USIABP,unknown,South
2017-01-08T19:59:31Z,1483905571,2017,20,0,8.833,8.833,-70.5678,-7.9,995.8,-1.0,-999.0,yes,yes,no,300234062783540,SVP,AWI-USIABP,unknown,South
2017-01-08T21:00:00Z,1483909200,2017,21,0,8.875,8.875,-70.5678,-7.9,995.7,-1.2,-999.0,yes,yes,no,300234062783540,SVP,AWI-USIABP,unknown,South
2017-01-08T22:00:28Z,1483912829,2017,22,0,8.917,8.917,-70.5678,-7.9,995.8,-1.6,-999.0,yes,yes,no,300234062783540,SVP,AWI-USIABP,unknown,South
2017-01-08T22:59:31Z,1483916371,2017,23,0,8.958,8.958,-70.5678,-7.9,995.8,-1.9,-999.0,yes,yes,no,300234062783540,SVP,AWI-USIABP,unknown,South
2017-01-09T00:00:00Z,1483920000,2017,0,0,9.0,9.0,-70.5678,-7.9,995.9,-2.4,-999.0,yes,yes,no,300234062783540,SVP,AWI-USIABP,unknown,South
2017-01-09T01:00:28Z,1483923629,2017,1,0,9.042,9.042,-70.5678,-7.9,995.6,-2.8,-999.0,yes,yes,no,300234062783540,SVP,AWI-USIABP,unknown,South
2017-01-09T01:59:31Z,1483927171,2017,2,0,9.083,9.083,-70.5678,-7.9,995.4,-3.1,-999.0,yes,yes,no,300234062783540,SVP,AWI-USIABP,unknown,South
2017-01-09T03:00:00Z,1483930800,2017,3,0,9.125,9.125,-70.568,-7.9,994.8,-3.5,-999.0,yes,yes,no,300234062783540,SVP,AWI-USIABP,unknown,South
2017-01-09T04:00:28Z,1483934429,2017,4,0,9.167,9.167,-70.5678,-7.9002,994.6,-3.3,-999.0,yes,yes,no,300234062783540,SVP,AWI-USIABP,unknown,South
2017-01-09T04:59:31Z,1483937971,2017,5,0,9.208,9.208,-70.5678,-7.9002,995.0,-3.2,-999.0,yes,yes,no,300234062783540,SVP,AWI-USIABP,unknown,South
2017-01-09T06:00:00Z,1483941600,2017,6,0,9.25,9.25,-70.5678,-7.9002,994.8,-2.9,-999.0,yes,yes,no,300234062783540,SVP,AWI-USIABP,unknown,South
2017-01-09T07:00:28Z,1483945229,2017,7,0,9.292,9.292,-70.5678,-7.9,994.9,-2.7,-999.0,yes,yes,no,300234062783540,SVP,AWI-USIABP,unknown,South
2017-01-09T07:59:31Z,1483948771,2017,8,0,9.333,9.333,-70.5678,-7.9002,994.9,-2.4,-999.0,yes,yes,no,300234062783540,SVP,AWI-USIABP,unknown,South
2017-01-09T09:00:00Z,1483952400,2017,9,0,9.375,9.375,-70.5678,-7.9002,994.6,-1.9,-999.0,yes,yes,no,300234062783540,SVP,AWI-USIABP,unknown,South
2017-01-09T10:00:28Z,1483956029,2017,10,0,9.417,9.417,-70.5678,-7.9,994.6,-1.2,-999.0,yes,yes,no,300234062783540,SVP,AWI-USIABP,unknown,South
2017-01-09T10:59:31Z,1483959571,2017,11,0,9.458,9.458,-70.5678,-7.9,994.5,-0.9,-999.0,yes,yes,no,300234062783540,SVP,AWI-USIABP,unknown,South
2017-01-09T12:00:00Z,1483963200,2017,12,0,9.5,9.5,-70.5678,-7.9002,994.5,-0.1,-999.0,yes,yes,no,300234062783540,SVP,AWI-USIABP,unknown,South
2017-01-09T13:00:28Z,1483966829,2017,13,0,9.542,9.542,-70.5678,-7.9002,994.6,1.2,-999.0,yes,yes,no,300234062783540,SVP,AWI-USIABP,unknown,South
2017-01-09T13:59:31Z,1483970371,2017,14,0,9.583,9.583,-70.5678,-7.9002,994.6,0.5,-999.0,yes,yes,no,300234062783540,SVP,AWI-USIABP,unknown,South
2017-01-09T15:00:00Z,1483974000,2017,15,0,9.625,9.625,-70.5678,-7.9002,994.2,0.4,-999.0,yes,yes,no,300234062783540,SVP,AWI-USIABP,unknown,South
2017-01-09T16:00:28Z,1483977629,2017,16,0,9.667,9.667,-70.5678,-7.9,994.0,1.4,-999.0,yes,yes,no,300234062783540,SVP,AWI-USIABP,unknown,South
2017-01-09T16:59:31Z,1483981171,2017,17,0,9.708,9.708,-70.5678,-7.9,993.6,1.2,-999.0,yes,yes,no,300234062783540,SVP,AWI-USIABP,unknown,South
2017-01-09T18:00:00Z,1483984800,2017,18,0,9.75,9.75,-70.5678,-7.9,993.8,0.7,-999.0,yes,yes,no,300234062783540,SVP,AWI-USIABP,unknown,South
2017-01-09T19:00:28Z,1483988429,2017,19,0,9.792,9.792,-70.5678,-7.9,994.1,0.3,-999.0,yes,yes,no,300234062783540,SVP,AWI-USIABP,unknown,South
2017-01-09T19:59:31Z,1483991971,2017,20,0,9.833,9.833,-70.5678,-7.9,994.6,-0.1,-999.0,yes,yes,no,300234062783540,SVP,AWI-USIABP,unknown,South
2017-01-09T21:00:00Z,1483995600,2017,21,0,9.875,9.875,-70.5678,-7.9,994.7,-0.6,-999.0,yes,yes,no,300234062783540,SVP,AWI-USIABP,unknown,South
2017-01-09T22:00:28Z,1483999229,2017,22,0,9.917,9.917,-70.5678,-7.9,994.9,-0.9,-999.0,yes,yes,no,300234062783540,SVP,AWI-USIABP,unknown,South
2017-01-09T22:59:31Z,1484002771,2017,23,0,9.958,9.958,-70.5678,-7.9,994.7,-1.1,-999.0,yes,yes,no,300234062783540,SVP,AWI-USIABP,unknown,South
2017-01-10T00:00:00Z,1484006400,2017,0,0,10.0,10.0,-70.5678,-7.9,994.7,-1.4,-999.0,yes,yes,no,300234062783540,SVP,AWI-USIABP,unknown,South
2017-01-10T01:00:28Z,1484010029,2017,1,0,10.042,10.042,-70.5678,-7.9,994.9,-1.8,-999.0,yes,yes,no,300234062783540,SVP,AWI-USIABP,unknown,South
2017-01-10T01:59:31Z,1484013571,2017,2,0,10.083,10.083,-70.5678,-7.9,995.1,-1.9,-999.0,yes,yes,no,300234062783540,SVP,AWI-USIABP,unknown,South
2017-01-10T03:00:00Z,1484017200,2017,3,0,10.125,10.125,-70.5678,-7.9,995.1,-1.9,-999.0,yes,yes,no,300234062783540,SVP,AWI-USIABP,unknown,South
2017-01-10T04:00:28Z,1484020829,2017,4,0,10.167,10.167,-70.5678,-7.9,995.1,-2.0,-999.0,yes,yes,no,300234062783540,SVP,AWI-USIABP,unknown,South
2017-01-10T04:59:31Z,1484024371,2017,5,0,10.208,10.208,-70.5678,-7.9002,995.2,-2.0,-999.0,yes,yes,no,300234062783540,SVP,AWI-USIABP,unknown,South
2017-01-10T06:00:00Z,1484028000,2017,6,0,10.25,10.25,-70.5678,-7.9002,995.8,-2.0,-999.0,yes,yes,no,300234062783540,SVP,AWI-USIABP,unknown,South
2017-01-10T07:00:28Z,1484031629,2017,7,0,10.292,10.292,-70.5678,-7.9,996.6,-1.9,-999.0,yes,yes,no,300234062783540,SVP,AWI-USIABP,unknown,South
2017-01-10T07:59:31Z,1484035171,2017,8,0,10.333,10.333,-70.5678,-7.9002,997.0,-1.8,-999.0,yes,yes,no,300234062783540,SVP,AWI-USIABP,unknown,South
2017-01-10T09:00:00Z,1484038800,2017,9,0,10.375,10.375,-70.5678,-7.9,997.5,-1.6,-999.0,yes,yes,no,300234062783540,SVP,AWI-USIABP,unknown,South
2017-01-10T10:00:28Z,1484042429,2017,10,0,10.417,10.417,-70.568,-7.9002,998.0,-1.4,-999.0,yes,yes,no,300234062783540,SVP,AWI-USIABP,unknown,South
2017-01-10T10:59:31Z,1484045971,2017,11,0,10.458,10.458,-70.5678,-7.9,998.7,-1.1,-999.0,yes,yes,no,300234062783540,SVP,AWI-USIABP,unknown,South
2017-01-10T12:00:00Z,1484049600,2017,12,0,10.5,10.5,-70.5678,-7.9,999.0,-0.7,-999.0,yes,yes,no,300234062783540,SVP,AWI-USIABP,unknown,South
2017-01-10T13:00:28Z,1484053229,2017,13,0,10.542,10.542,-70.5678,-7.9,999.6,-0.4,-999.0,yes,yes,no,300234062783540,SVP,AWI-USIABP,unknown,South
2017-01-10T13:59:31Z,1484056771,2017,14,0,10.583,10.583,-70.5678,-7.9,999.4,-0.0,-999.0,yes,yes,no,300234062783540,SVP,AWI-USIABP,unknown,South
2017-01-10T15:00:00Z,1484060400,2017,15,0,10.625,10.625,-70.5678,-7.9002,999.6,0.0,-999.0,yes,yes,no,300234062783540,SVP,AWI-USIABP,unknown,South
2017-01-10T16:00:28Z,1484064029,2017,16,0,10.667,10.667,-70.5678,-7.9002,999.8,0.1,-999.0,yes,yes,no,300234062783540,SVP,AWI-USIABP,unknown,South
2017-01-10T16:59:31Z,1484067571,2017,17,0,10.708,10.708,-70.5678,-7.9,999.9,0.1,-999.0,yes,yes,no,300234062783540,SVP,AWI-USIABP,unknown,South
2017-01-10T18:00:00Z,1484071200,2017,18,0,10.75,10.75,-70.5678,-7.9,1000.2,0.1,-999.0,yes,yes,no,300234062783540,SVP,AWI-USIABP,unknown,South
2017-01-10T19:00:28Z,1484074829,2017,19,0,10.792,10.792,-70.5678,-7.9,1000.5,0.0,-999.0,yes,yes,no,300234062783540,SVP,AWI-USIABP,unknown,South
2017-01-10T19:59:31Z,1484078371,2017,20,0,10.833,10.833,-70.5678,-7.9,1000.9,-0.1,-999.0,yes,yes,no,300234062783540,SVP,AWI-USIABP,unknown,South
2017-01-10T21:00:00Z,1484082000,2017,21,0,10.875,10.875,-70.5678,-7.9,1001.3,-0.2,-999.0,yes,yes,no,300234062783540,SVP,AWI-USIABP,unknown,South
2017-01-10T22:00:28Z,1484085629,2017,22,0,10.917,10.917,-70.5678,-7.9,1001.2,-0.6,-999.0,yes,yes,no,300234062783540,SVP,AWI-USIABP,unknown,South
2017-01-10T22:59:31Z,1484089171,2017,23,0,10.958,10.958,-70.5678,-7.9,1001.6,-1.1,-999.0,yes,yes,no,300234062783540,SVP,AWI-USIABP,unknown,South
2017-01-11T00:00:00Z,1484092800,2017,0,0,11.0,11.0,-70.5678,-7.9,1001.7,-1.5,-999.0,yes,yes,no,300234062783540,SVP,AWI-USIABP,unknown,South
2017-01-11T01:00:28Z,1484096429,2017,1,0,11.042,11.042,-70.5678,-7.9,1001.8,-2.0,-999.0,yes,yes,no,300234062783540,SVP,AWI-USIABP,unknown,South
2017-01-11T01:59:31Z,1484099971,2017,2,0,11.083,11.083,-70.5678,-7.9,1001.9,-2.5,-999.0,yes,yes,no,300234062783540,SVP,AWI-USIABP,unknown,South
2017-01-11T03:00:00Z,1484103600,2017,3,0,11.125,11.125,-70.5678,-7.9,1001.9,-3.0,-999.0,yes,yes,no,300234062783540,SVP,AWI-USIABP,unknown,South
2017-01-11T04:00:28Z,1484107229,2017,4,0,11.167,11.167,-70.5678,-7.9,1001.8,-3.3,-999.0,yes,yes,no,300234062783540,SVP,AWI-USIABP,unknown,South
2017-01-11T04:59:31Z,1484110771,2017,5,0,11.208,11.208,-70.5678,-7.9,1001.8,-3.5,-999.0,yes,yes,no,300234062783540,SVP,AWI-USIABP,unknown,South
2017-01-11T06:00:00Z,1484114400,2017,6,0,11.25,11.25,-70.5678,-7.9,1001.7,-3.5,-999.0,yes,yes,no,300234062783540,SVP,AWI-USIABP,unknown,South
2017-01-11T07:00:28Z,1484118029,2017,7,0,11.292,11.292,-70.5678,-7.9,1001.7,-3.1,-999.0,yes,yes,no,300234062783540,SVP,AWI-USIABP,unknown,South
2017-01-11T07:59:31Z,1484121571,2017,8,0,11.333,11.333,-70.568,-7.8996,1001.9,-2.2,-999.0,yes,yes,no,300234062783540,SVP,AWI-USIABP,unknown,South
2017-01-11T09:00:00Z,1484125200,2017,9,0,11.375,11.375,-70.5682,-7.8978,1002.0,-0.3,-999.0,yes,yes,no,300234062783540,SVP,AWI-USIABP,unknown,South
2017-01-11T10:00:28Z,1484128829,2017,10,0,11.417,11.417,-70.5688,-7.8922,1002.1,2.4,-999.0,yes,yes,no,300234062783540,SVP,AWI-USIABP,unknown,South
2017-01-11T10:59:31Z,1484132371,2017,11,0,11.458,11.458,-70.5694,-7.887,1002.2,5.2,-999.0,yes,yes,no,300234062783540,SVP,AWI-USIABP,unknown,South
2017-01-11T12:00:00Z,1484136000,2017,12,0,11.5,11.5,-70.5708,-7.882,1002.2,7.7,-999.0,yes,yes,no,300234062783540,SVP,AWI-USIABP,unknown,South
2017-01-11T13:00:28Z,1484139629,2017,13,0,11.542,11.542,-70.5724,-7.882,1002.2,7.2,-999.0,yes,yes,no,300234062783540,SVP,AWI-USIABP,unknown,South
2017-01-11T13:59:31Z,1484143171,2017,14,0,11.583,11.583,-70.5726,-7.882,1002.2,4.7,-999.0,yes,yes,no,300234062783540,SVP,AWI-USIABP,unknown,South
2017-01-11T15:00:00Z,1484146800,2017,15,0,11.625,11.625,-70.5732,-7.8814,1002.1,3.6,-999.0,yes,yes,no,300234062783540,SVP,AWI-USIABP,unknown,South
2017-01-11T16:00:28Z,1484150429,2017,16,0,11.667,11.667,-70.5736,-7.878,1002.1,2.0,-999.0,yes,yes,no,300234062783540,SVP,AWI-USIABP,unknown,South
2017-01-11T16:59:31Z,1484153971,2017,17,0,11.708,11.708,-70.5732,-7.8726,1002.0,1.6,-999.0,yes,yes,no,300234062783540,SVP,AWI-USIABP,unknown,South
2017-01-11T18:00:00Z,1484157600,2017,18,0,11.75,11.75,-70.5718,-7.8666,1002.1,1.4,-999.0,yes,yes,no,300234062783540,SVP,AWI-USIABP,unknown,South
2017-01-11T19:00:28Z,1484161229,2017,19,0,11.792,11.792,-70.5702,-7.8604,1002.0,1.4,-999.0,yes,yes,no,300234062783540,SVP,AWI-USIABP,unknown,South
2017-01-11T19:59:31Z,1484164771,2017,20,0,11.833,11.833,-70.5704,-7.8526,1002.1,1.1,-999.0,yes,yes,no,300234062783540,SVP,AWI-USIABP,unknown,South
2017-01-11T21:00:00Z,1484168400,2017,21,0,11.875,11.875,-70.5702,-7.8392,1002.1,1.0,-999.0,yes,yes,no,300234062783540,SVP,AWI-USIABP,unknown,South
2017-01-11T22:00:28Z,1484172029,2017,22,0,11.917,11.917,-70.5692,-7.8206,1002.1,0.8,-999.0,yes,yes,no,300234062783540,SVP,AWI-USIABP,unknown,South
2017-01-11T22:59:31Z,1484175571,2017,23,0,11.958,11.958,-70.5676,-7.8004,1002.1,0.6,-999.0,yes,yes,no,300234062783540,SVP,AWI-USIABP,unknown,South
2017-01-12T00:00:00Z,1484179200,2017,0,0,12.0,12.0,-70.566,-7.7858,1002.3,0.3,-999.0,yes,yes,no,300234062783540,SVP,AWI-USIABP,unknown,South
2017-01-12T01:00:28Z,1484182829,2017,1,0,12.042,12.042,-70.564,-7.7742,1002.3,-0.1,-999.0,yes,yes,no,300234062783540,SVP,AWI-USIABP,unknown,South
2017-01-12T01:59:31Z,1484186371,2017,2,0,12.083,12.083,-70.5612,-7.7656,1002.1,-1.6,-999.0,yes,yes,no,300234062783540,SVP,AWI-USIABP,unknown,South
2017-01-12T03:00:00Z,1484190000,2017,3,0,12.125,12.125,-70.5572,-7.7634,1002.2,-3.2,-999.0,yes,yes,no,300234062783540,SVP,AWI-USIABP,unknown,South
2017-01-12T04:00:28Z,1484193629,2017,4,0,12.167,12.167,-70.554,-7.7672,1002.3,-3.6,-999.0,yes,yes,no,300234062783540,SVP,AWI-USIABP,unknown,South
2017-01-12T04:59:31Z,1484197171,2017,5,0,12.208,12.208,-70.5524,-7.7752,1002.2,-3.7,-999.0,yes,yes,no,300234062783540,SVP,AWI-USIABP,unknown,South
2017-01-12T06:00:00Z,1484200800,2017,6,0,12.25,12.25,-70.5522,-7.782,1002.3,-3.9,-999.0,yes,yes,no,300234062783540,SVP,AWI-USIABP,unknown,South
2017-01-12T07:00:28Z,1484204429,2017,7,0,12.292,12.292,-70.5518,-7.7826,1002.3,-3.9,-999.0,yes,yes,no,300234062783540,SVP,AWI-USIABP,unknown,South
2017-01-12T07:59:31Z,1484207971,2017,8,0,12.333,12.333,-70.5502,-7.779,1002.5,-3.3,-999.0,yes,yes,no,300234062783540,SVP,AWI-USIABP,unknown,South
2017-01-12T09:00:00Z,1484211600,2017,9,0,12.375,12.375,-70.5482,-7.7708,1002.6,-2.5,-999.0,yes,yes,no,300234062783540,SVP,AWI-USIABP,unknown,South
2017-01-12T10:00:28Z,1484215229,2017,10,0,12.417,12.417,-70.546,-7.76,1002.6,-0.7,-999.0,yes,yes,no,300234062783540,SVP,AWI-USIABP,unknown,South